Valentine, NE

8:26 PM CDT on July 23, 2017 (GMT -0500)
Miller Field

Weather History for KVTN - March, 2013

Change the Weather History Date:

Tuesday, March 26, 2013

  Actual Average Record
Temperature  
Mean Temperature 31 °F 39 °F  
Max Temperature 53 °F 53 °F 87 °F (2012)
Min Temperature 9 °F 26 °F -6 °F (1996)
Degree Days  
Heating Degree Days 34 26  
Month to date heating degree days 856 769  
Since 1 July heating degree days 5809 6005  
Cooling Degree Days 0 0  
Month to date cooling degree days 0 0  
Year to date cooling degree days 0 0  
Moisture  
Dew Point 14 °F    
Average Humidity 57    
Maximum Humidity 92    
Minimum Humidity 21    
Precipitation  
Precipitation 0.00 in 0.04 in 0.72 in (1921)
Month to date precipitation 1.46 0.84  
Year to date precipitation 2.69 1.58  
Snow  
Snow 0.00 in 0.20 in 4.40 in (1931)
Month to date snowfall 10.2 5.6  
Since 1 July snowfall 37.8 27.7  
Snow Depth T in    
Sea Level Pressure  
Sea Level Pressure 30.21 in    
Wind  
Wind Speed 8 mph (SE)    
Max Wind Speed 23 mph    
Max Gust Speed 30 mph    
Visibility 10 miles    
Events      
T = Trace of Precipitation, MM = Missing Value Source: NWS Daily Summary

Daily Weather History Graph

Daily Weather History Graph

Search for Another Location

Airport or City:

Trip Planner

Search our weather history database for the weather conditions in past years. The results will help you decide how hot, cold, wet, or windy it might be!

Date:

Astronomy

Mar. 26, 2013 Rise Set
Actual Time 7:34 AM CDT 8:01 PM CDT
Civil Twilight 7:06 AM CDT 8:30 PM CDT
Nautical Twilight 6:32 AM CDT 9:03 PM CDT
Astronomical Twilight 5:58 AM CDT 9:38 PM CDT
Moon 7:41 PM CDT (3/26) 6:52 AM CDT (3/26)
Length of Visible Light 13h 24m
Length of Day
12h 27m
Waxing Gibbous, 99% of the Moon is Illuminated
Mar 26
Waxing Gibbous
Mar 27
Full
Apr 2
Last Quarter
Apr 10
New
Apr 18
First Quarter

Hourly Weather History & Observations

Time (CDT) Temp. Windchill Dew Point Humidity Pressure Visibility Wind Dir Wind Speed Gust Speed Precip Events Conditions
12:52 AM 17.1 °F 10.0 °F 10.9 °F 77% 30.40 in - ESE 4.6 mph - N/A   Clear
1:52 AM 16.0 °F 10.4 °F 10.9 °F 81% 30.38 in 10.0 mi South 3.5 mph - N/A   Clear
2:52 AM 15.1 °F - 10.0 °F 80% 30.37 in - Calm Calm - N/A   Clear
3:52 AM 15.1 °F - 10.0 °F 80% 30.35 in - Calm Calm - N/A   Clear
4:52 AM 10.9 °F 1.4 °F 8.1 °F 88% 30.33 in 10.0 mi ENE 5.8 mph - N/A   Clear
5:52 AM 10.0 °F 3.6 °F 7.0 °F 87% 30.31 in - ENE 3.5 mph - N/A   Clear
6:52 AM 9.0 °F 0.6 °F 5.0 °F 84% 30.30 in - ENE 4.6 mph - N/A   Clear
7:52 AM 10.9 °F 1.4 °F 7.0 °F 84% 30.30 in 10.0 mi NE 5.8 mph - N/A   Clear
8:52 AM 15.1 °F 7.7 °F 10.0 °F 80% 30.29 in 10.0 mi ENE 4.6 mph - N/A   Clear
9:52 AM 21.9 °F 17.2 °F 16.0 °F 78% 30.27 in 10.0 mi SE 3.5 mph - N/A   Clear
10:52 AM 33.1 °F 26.1 °F 19.0 °F 56% 30.23 in - SSE 8.1 mph - N/A   Clear
11:52 AM 41.0 °F 35.2 °F 18.0 °F 40% 30.20 in 10.0 mi South 9.2 mph 18.4 mph N/A   Clear
12:52 PM 46.0 °F 40.2 °F 15.1 °F 29% 30.17 in 10.0 mi South 12.7 mph - N/A   Clear
1:52 PM 48.0 °F - 17.1 °F 29% 30.14 in - SSE 17.3 mph - N/A   Clear
2:52 PM 50.0 °F - 16.0 °F 26% 30.11 in 10.0 mi South 15.0 mph 24.2 mph N/A   Clear
3:03 PM 50.0 °F - 12.2 °F 22% 30.03 in 10.0 mi South 16.1 mph 25.3 mph N/A   Clear
3:52 PM 51.1 °F - 14.0 °F 23% 30.08 in 10.0 mi South 13.8 mph 24.2 mph N/A   Clear
4:52 PM 51.1 °F - 12.0 °F 21% 30.07 in 10.0 mi South 12.7 mph - N/A   Clear
5:52 PM 51.1 °F - 12.9 °F 22% 30.06 in 10.0 mi South 16.1 mph - N/A   Clear
6:52 PM 48.9 °F - 15.1 °F 26% 30.08 in 10.0 mi South 11.5 mph - N/A   Clear
7:52 PM 45.0 °F 39.3 °F 18.0 °F 34% 30.09 in 10.0 mi South 11.5 mph - N/A   Partly Cloudy
8:52 PM 37.0 °F 30.4 °F 21.9 °F 54% 30.12 in - ESE 9.2 mph - N/A   Clear
9:52 PM 35.1 °F 28.6 °F 21.9 °F 59% 30.12 in - SSE 8.1 mph - N/A   Clear
10:52 PM 33.1 °F 30.0 °F 21.9 °F 64% 30.12 in - ESE 3.5 mph - N/A   Clear
11:52 PM 34.0 °F 26.6 °F 21.9 °F 61% 30.12 in 10.0 mi South 9.2 mph - N/A   Clear